Lapse_Rate
6.2 6.3 6.4 6.5 6.5 7.1 7.0 6.7 6.8 6.4 6.2 6.3 6.3 6.1 6.0 6.3 6.3 6.3 6.3 6.2 6.3 6.2 6.1 6.1 5.9 5.9 5.8 5.8 5.6 5.5 5.6 5.5 5.5 5.4 5.5 5.5 5.5 5.4 5.2 5.3 5.4 5.6 5.8 5.8 5.7 5.8 6.0 6.0 5.9
6.2 6.3 6.5 6.6 6.8 6.8 6.4 6.8 6.6 6.5 6.3 6.3 6.3 6.4 6.0 6.2 6.6 6.7 6.5 6.4 6.3 6.2 6.2 6.1 6.0 5.9 5.9 5.8 5.7 5.7 5.6 5.7 5.6 5.5 5.4 5.4 5.3 5.2 5.4 5.4 5.3 5.5 5.8 5.9 5.7 5.7 5.9 6.0 5.9
6.4 6.7 6.6 6.4 6.8 6.7 6.4 6.6 6.5 6.7 6.6 5.8 6.0 6.5 6.5 6.5 6.7 6.7 6.5 6.6 6.4 6.3 6.2 6.1 6.0 6.0 6.0 5.8 5.8 5.8 5.7 5.9 5.8 5.7 5.5 5.5 5.3 5.3 5.3 5.3 5.3 5.5 5.6 5.7 5.8 5.7 5.7 5.9 5.9
6.7 6.8 6.8 7.0 6.8 6.1 6.4 6.3 6.4 6.4 6.8 6.1 5.9 6.2 6.6 6.6 6.7 6.7 6.5 6.5 6.5 6.3 6.3 6.2 6.1 6.1 6.0 5.9 6.0 5.9 5.9 6.0 5.9 5.8 5.7 5.6 5.5 5.4 5.7 5.5 5.5 5.5 5.5 5.6 5.8 5.7 5.7 5.8 5.8
6.9 7.1 7.3 7.4 6.8 6.2 6.0 6.4 6.3 6.2 6.5 6.2 5.9 5.9 6.5 6.6 6.8 6.6 6.6 6.6 6.6 6.4 6.4 6.4 6.4 6.3 6.2 6.1 6.1 5.9 5.9 5.9 5.8 5.8 5.7 5.5 5.6 5.6 5.6 5.5 5.6 5.5 5.6 5.7 5.7 5.7 5.7 5.8 5.9
6.4 7.1 7.9 7.5 7.1 6.5 6.2 6.2 6.3 6.5 6.4 6.3 6.1 6.5 6.7 6.8 6.9 6.5 6.5 6.6 6.4 6.4 6.4 6.4 6.5 6.4 6.3 6.3 6.2 6.1 6.0 5.9 5.8 5.8 5.7 5.5 5.5 5.5 5.3 5.4 5.5 5.4 5.4 5.6 5.7 5.8 5.7 5.7 5.8
6.6 7.3 7.4 7.3 7.1 6.8 6.4 6.3 6.1 6.4 6.2 6.0 6.3 6.3 6.7 6.9 6.5 6.4 6.5 6.6 6.4 6.3 6.4 6.5 6.6 6.4 6.3 6.3 6.2 6.1 6.0 5.7 5.7 5.7 5.6 5.4 5.4 5.2 5.3 5.3 5.3 5.3 5.4 5.5 5.6 5.8 5.8 5.7 5.6
7.3 7.2 7.4 7.3 7.4 6.8 6.6 6.2 6.4 6.1 6.2 6.3 6.4 6.2 6.6 6.9 6.6 6.2 6.4 6.5 6.4 6.3 6.3 6.4 6.5 6.3 6.2 6.2 6.1 6.0 5.9 5.7 5.6 5.6 5.3 5.2 5.3 5.3 5.2 5.2 5.3 5.3 5.3 5.4 5.5 5.6 5.8 5.7 5.5
7.3 7.4 7.8 7.4 7.4 7.0 6.8 6.4 7.0 6.4 6.3 6.4 6.2 6.3 6.3 6.3 6.5 6.2 6.2 6.4 6.4 6.3 6.3 6.4 6.4 6.3 6.1 6.0 6.0 5.9 5.9 5.8 5.6 5.6 5.4 5.2 5.0 5.1 4.9 5.1 5.2 5.2 5.3 5.4 5.5 5.5 5.7 5.6 5.5
7.3 7.6 7.3 7.3 7.2 7.0 6.7 6.7 6.6 6.2 5.7 6.1 6.1 6.2 6.3 6.1 6.3 6.3 6.3 6.4 6.4 6.3 6.2 6.3 6.3 6.3 6.2 6.0 5.9 5.8 5.7 5.6 5.6 5.4 5.4 5.2 5.1 4.9 4.9 4.7 4.8 5.1 5.2 5.4 5.6 5.6 5.4 5.3 5.4
7.5 7.5 7.2 7.3 7.4 7.3 7.0 7.0 6.6 6.1 5.9 6.0 6.0 6.2 6.3 6.0 6.1 6.0 6.0 6.1 6.1 6.1 6.1 6.1 6.2 6.2 6.1 6.1 5.9 5.8 5.8 5.6 5.4 5.3 5.1 5.2 5.1 4.8 4.8 4.8 4.7 4.8 4.9 5.3 5.3 5.4 5.4 5.4 5.2
7.7 7.6 7.4 7.4 7.4 7.1 6.6 6.6 6.3 6.0 5.7 5.7 5.9 6.0 6.2 6.1 6.1 6.0 5.9 6.1 6.2 6.1 6.1 6.1 6.1 6.1 6.0 5.9 6.0 5.7 5.5 5.3 5.5 5.4 5.2 5.1 5.0 5.1 5.0 4.9 4.8 4.7 4.7 4.9 5.0 5.0 5.2 5.2 5.2
7.7 7.4 7.4 7.3 7.3 7.2 7.1 6.5 6.2 6.0 5.8 5.8 5.8 6.0 5.9 5.9 5.8 5.9 5.8 5.8 5.9 6.1 6.1 6.1 5.9 5.8 5.9 6.0 5.9 5.7 5.5 5.4 5.6 5.4 5.2 5.2 5.2 5.3 5.3 5.1 4.9 4.8 4.9 4.9 5.1 5.4 5.1 5.2 5.2
7.7 7.6 7.2 7.2 7.2 7.2 6.9 6.7 6.1 6.1 5.8 6.0 5.9 5.8 5.6 5.7 5.6 5.5 5.7 5.8 5.9 5.9 5.9 6.0 5.9 5.8 5.9 5.8 5.8 5.7 5.5 5.6 5.7 5.6 5.5 5.5 5.5 5.4 5.3 5.3 5.4 5.3 5.3 5.3 5.4 5.6 5.6 5.5 5.5
8.0 7.5 7.3 7.2 7.2 7.0 6.8 6.7 6.5 6.3 6.0 6.0 6.1 6.0 5.5 5.5 5.7 5.6 5.6 5.6 5.7 5.8 5.9 5.7 5.7 5.6 5.6 5.6 5.6 5.7 5.8 5.6 5.5 5.5 5.4 5.5 5.6 5.5 5.4 5.3 5.2 5.3 5.4 5.5 5.6 5.5 5.5 5.4 5.5
8.0 7.7 8.0 7.5 7.4 7.2 7.0 7.8 6.9 6.3 6.2 5.9 5.8 5.9 5.7 5.7 5.6 5.4 5.3 5.4 5.4 5.5 5.6 5.6 5.5 5.5 5.4 5.4 5.4 5.4 5.5 5.6 5.5 5.5 5.6 5.6 5.5 5.5 5.4 5.4 5.3 5.3 5.5 5.5 5.6 5.6 5.5 5.4 5.4
8.6 8.8 8.3 7.8 7.7 7.1 6.9 7.5 6.8 6.7 6.4 6.0 5.8 5.6 5.9 5.7 5.4 5.4 5.4 5.3 5.5 5.6 5.6 5.6 5.5 5.5 5.5 5.3 5.3 5.4 5.3 5.2 5.1 5.1 5.1 5.2 5.4 5.4 5.4 5.3 5.3 5.6 5.7 5.6 5.6 5.6 5.5 5.4 5.5
8.8 8.8 8.6 8.2 7.7 7.8 7.5 7.4 7.1 7.1 6.5 6.2 6.1 6.0 6.0 5.9 5.7 5.7 5.6 5.5 5.3 5.6 5.7 5.8 5.6 5.4 5.3 5.3 5.2 5.0 4.9 4.7 4.7 4.9 5.1 5.4 5.3 5.1 5.2 5.4 5.3 5.5 5.8 5.8 5.8 5.8 5.6 5.6 5.6
8.5 8.6 8.8 8.4 8.1 7.9 8.0 7.7 7.5 6.9 6.7 6.5 6.5 6.4 6.3 6.1 5.8 5.7 5.8 5.8 5.6 5.5 5.7 5.8 5.6 5.4 5.4 5.4 5.2 5.0 5.1 5.3 5.3 5.4 5.2 5.6 5.7 5.5 5.7 5.7 5.7 5.9 6.0 5.8 5.8 5.8 5.7 5.5 5.4
8.7 8.7 8.9 8.3 8.0 7.7 8.1 7.9 7.8 7.5 7.5 7.0 6.6 6.5 6.5 6.4 6.2 6.1 6.0 6.0 6.2 6.1 6.1 5.9 5.9 5.8 5.7 5.6 5.6 5.5 5.6 5.6 5.7 5.6 5.5 5.5 5.6 5.8 5.7 5.7 5.7 5.7 5.9 5.9 5.8 5.7 5.7 5.6 5.5
9.3 9.2 9.1 8.3 7.8 7.6 7.8 8.6 8.2 8.4 8.0 7.6 7.2 6.8 6.6 6.7 6.6 6.3 6.5 6.6 6.8 6.8 6.7 6.5 6.2 5.9 5.8 5.9 6.0 6.1 6.1 6.2 5.9 5.9 5.8 5.7 5.6 5.6 5.7 5.7 5.9 5.9 5.9 5.6 5.8 5.8 5.8 5.7 5.5
9.4 8.6 8.6 8.4 8.2 9.2 8.1 9.5 8.6 8.4 8.5 8.2 7.8 7.4 6.9 6.8 7.1 6.9 6.7 6.8 7.2 7.2 6.9 6.6 6.5 6.4 6.3 6.4 6.6 6.7 6.8 6.9 6.9 6.3 5.9 5.4 5.4 5.4 5.8 5.9 6.0 5.7 5.8 5.8 5.8 5.9 5.5 5.7 5.6
9.2 8.4 8.5 8.4 8.3 8.7 8.8 9.1 9.0 8.6 8.0 8.2 7.9 7.3 7.0 7.0 7.0 7.5 7.3 7.0 7.0 7.1 7.2 7.1 6.9 6.7 6.7 6.9 6.8 6.9 6.8 6.3 6.8 6.7 6.4 5.6 4.7 5.8 6.2 6.1 6.3 6.3 5.8 5.9 6.1 6.0 6.0 5.8 5.7
7.7 8.2 8.5 8.6 8.8 9.4 8.9 8.9 9.5 9.1 8.3 8.0 7.8 7.6 7.3 7.1 7.5 7.5 7.5 7.6 7.3 7.3 7.3 7.2 7.2 7.0 7.1 7.1 7.1 6.9 6.4 6.5 6.5 6.6 6.3 5.0 4.8 5.6 5.9 6.6 6.1 6.0 5.7 5.8 5.9 6.0 5.8 5.8 5.8
8.0 9.0 9.4 9.2 9.3 9.5 8.5 8.9 9.5 9.0 8.4 7.9 7.7 8.3 8.2 7.9 7.7 7.7 7.6 7.7 7.7 7.8 7.8 7.7 7.3 7.4 7.4 7.5 7.1 6.9 6.4 6.6 6.9 6.9 6.6 6.5 5.8 6.0 5.8 5.7 5.9 6.1 5.7 5.3 5.5 5.7 5.7 5.7 5.6
8.7 9.3 9.6 8.6 9.2 9.5 8.8 9.5 9.5 9.0 8.9 8.6 8.3 8.2 8.3 8.2 8.0 7.9 7.9 7.7 7.6 7.6 7.4 7.4 7.3 7.3 7.6 7.3 7.1 7.0 6.7 6.7 6.8 6.4 6.2 6.2 5.9 5.8 5.8 6.0 6.3 6.2 6.1 5.7 5.8 5.6 5.5 5.6 5.4
8.8 8.4 9.3 9.5 9.6 9.4 9.6 9.6 9.3 9.2 8.9 8.9 8.3 8.1 8.0 8.1 8.3 8.3 8.2 8.0 7.9 7.8 7.5 7.4 7.6 7.5 7.5 7.3 7.3 7.1 6.7 6.8 6.7 6.3 5.9 6.2 6.2 6.1 6.0 6.0 5.8 5.6 5.7 5.7 5.7 5.7 5.7 5.7 5.8
8.0 9.0 9.1 9.4 9.6 9.5 9.7 9.4 9.6 9.3 9.2 8.9 8.3 8.1 8.0 8.1 8.0 8.1 8.1 8.0 7.9 7.7 7.7 7.6 7.6 7.5 7.7 7.5 7.2 7.1 7.0 6.8 6.6 6.4 6.2 5.9 5.7 5.8 5.8 5.6 5.5 5.5 5.4 5.4 5.5 5.7 5.6 5.5 5.4
8.0 8.3 8.8 9.4 9.6 9.9 9.8 9.8 9.6 9.4 9.1 8.9 8.4 8.3 8.1 8.1 8.0 7.9 7.9 7.8 7.6 7.7 7.9 7.7 7.6 7.7 7.8 7.7 7.6 7.4 7.1 6.8 6.6 6.3 6.1 5.9 5.7 5.7 5.7 5.8 5.7 5.6 5.6 5.5 5.3 5.3 5.4 5.4 5.5
9.2 9.0 9.4 9.5 9.6 9.6 9.4 9.5 9.6 9.5 9.2 9.1 8.7 8.5 8.4 8.2 8.2 8.1 7.9 7.7 7.6 7.7 7.8 7.7 7.7 7.7 7.7 7.7 7.4 7.2 6.9 6.7 6.5 6.4 6.1 5.9 5.9 5.7 5.6 5.5 5.5 5.4 5.3 5.3 5.3 5.2 5.2 5.2 5.2
Wind_Speed
19 15 5 5 5 2 8 5 10 11 6 4 9 2 6 9 8 4 15 12 18 18 21 19 17 17 17 16 15 14 12 11 11 11 11 9 8 7 6 7 7 6 9 10 10 10 14 14 13
12 9 4 2 5 7 5 8 10 8 8 9 6 2 0 6 8 12 15 16 18 19 21 21 18 17 16 15 14 13 11 11 10 10 9 9 7 6 5 7 7 6 8 9 10 10 12 14 13
9 5 4 3 5 7 6 5 8 7 6 10 4 3 3 5 6 17 16 19 17 17 20 22 17 16 15 14 13 12 11 9 9 8 8 7 6 6 6 8 7 7 8 8 9 9 11 12 12
4 4 4 3 8 7 10 8 8 6 5 1 1 6 7 5 14 10 20 18 17 16 20 21 18 16 14 13 12 10 11 9 8 8 7 4 5 7 8 7 7 7 7 9 9 8 9 9 10
5 4 0 6 9 8 6 5 3 1 4 3 4 5 6 6 5 18 19 17 17 16 19 20 16 15 14 12 13 11 9 9 7 6 7 7 5 6 7 6 7 7 6 7 7 6 7 7 7
4 4 0 5 9 6 5 6 4 1 4 5 3 6 5 7 15 20 18 16 15 15 19 19 17 15 14 12 12 11 9 9 8 6 5 5 4 6 5 7 6 5 5 6 5 4 5 6 6
7 4 6 4 6 8 4 7 3 4 4 3 7 4 6 9 17 17 16 15 14 14 14 17 17 15 13 10 11 8 10 8 7 6 6 5 4 3 2 3 3 2 3 4 4 3 3 5 6
4 4 3 1 2 9 5 5 1 2 7 9 4 4 9 13 18 16 15 14 13 13 12 12 15 16 13 13 10 8 8 8 6 5 5 4 3 3 3 3 4 2 1 2 3 4 6 6 5
2 5 6 3 3 10 8 7 0 2 8 3 3 3 16 21 20 17 15 14 13 11 12 11 10 13 11 8 11 9 9 8 8 9 6 8 2 2 4 4 2 3 3 5 6 6 6 7 9
5 4 7 3 2 2 5 4 8 4 5 4 6 11 22 23 21 20 18 16 16 14 13 11 9 10 13 9 8 9 9 10 7 2 4 1 3 4 3 4 4 5 4 8 9 8 10 11 13
1 4 3 4 3 2 3 5 6 7 6 3 9 17 22 22 20 19 18 17 17 15 12 12 10 9 10 7 10 9 9 8 7 8 5 7 5 4 10 5 6 6 8 11 9 13 13 12 9
3 1 2 2 2 3 5 5 3 7 2 3 13 19 21 21 20 19 17 16 16 15 14 13 12 10 9 9 8 3 6 4 9 8 9 6 3 6 7 7 7 7 9 7 10 11 10 9 11
3 0 3 2 2 1 3 4 1 5 1 9 16 19 19 19 19 17 16 14 14 14 14 14 12 11 9 9 7 8 8 9 9 8 9 9 9 6 8 8 10 9 10 9 8 9 10 9 12
0 3 1 4 1 2 5 3 7 5 8 13 17 18 17 17 18 15 15 15 14 13 13 13 13 12 13 10 7 6 10 9 6 5 2 8 10 9 9 8 8 9 9 9 8 7 4 9 11
2 4 3 5 3 1 3 7 5 10 10 12 15 16 16 15 17 17 16 15 15 13 13 13 13 13 12 11 9 9 11 10 8 10 11 12 13 12 12 7 7 10 9 9 11 10 11 8 8
4 5 3 4 5 3 6 8 6 11 11 12 14 14 15 16 18 16 15 14 13 12 13 11 10 11 13 11 8 9 9 9 10 9 8 11 12 13 11 7 8 14 10 8 7 7 7 7 10
3 7 6 3 6 2 8 4 9 12 11 10 12 15 15 16 16 15 15 14 13 13 11 12 12 11 10 9 9 9 10 8 9 10 9 12 10 9 11 9 11 12 10 6 9 7 9 8 8
10 7 3 3 4 9 9 9 7 13 13 11 10 12 15 16 17 16 16 15 14 12 12 12 11 12 10 9 8 8 7 7 8 7 7 7 8 12 14 10 9 11 9 8 9 10 7 10 9
7 6 4 2 1 6 9 9 6 12 14 12 12 12 13 15 16 16 16 15 14 13 13 13 13 11 10 8 8 6 6 6 3 4 7 10 12 14 13 6 9 10 9 11 9 9 10 9 9
6 4 4 4 1 7 7 11 8 12 15 14 14 13 12 13 14 16 17 16 15 14 13 12 13 12 11 8 5 4 4 5 6 5 8 12 13 14 11 10 9 8 7 10 10 9 7 5 4
10 7 4 7 3 10 9 13 6 11 14 15 15 14 13 13 14 15 16 16 15 14 14 13 13 12 11 11 8 7 6 7 7 5 5 5 11 10 11 10 8 9 7 8 7 8 9 7 3
15 6 5 5 7 5 3 5 7 7 11 15 16 16 16 16 15 13 15 15 14 14 13 12 11 11 12 14 11 13 10 9 6 5 2 3 6 6 7 7 7 8 7 9 7 7 7 6 8
9 4 3 7 10 8 7 6 7 3 7 11 14 15 15 15 16 16 16 14 14 12 12 10 11 11 11 14 13 11 11 4 4 3 3 3 2 5 4 2 4 7 8 8 9 9 9 8 8
1 7 7 8 8 9 7 6 2 3 3 1 3 7 12 15 14 14 13 12 11 11 10 9 11 12 14 14 16 15 12 7 4 5 4 4 2 2 5 2 3 5 8 9 7 9 9 9 6
10 12 7 5 6 3 6 8 4 5 2 3 2 2 5 9 12 12 14 12 11 12 11 11 13 14 15 16 15 15 12 6 5 7 1 3 2 2 2 4 5 5 5 7 8 8 7 7 5
15 15 9 5 4 6 3 3 4 4 0 1 6 6 4 6 8 12 12 11 9 12 14 14 15 15 16 16 14 11 7 2 1 2 1 1 3 3 6 7 7 5 5 6 5 3 4 3 4
11 12 12 10 7 8 3 2 10 5 3 7 7 8 6 7 8 8 9 9 11 13 13 13 15 15 14 13 11 8 6 0 0 3 2 2 2 2 4 5 6 5 3 2 1 2 3 4 3
13 5 8 11 8 9 2 4 7 6 10 2 8 9 10 11 11 11 10 11 10 12 13 13 13 12 13 10 8 6 5 3 2 4 3 3 3 1 3 3 4 4 4 4 3 2 2 3 5
10 13 12 8 4 8 9 2 5 6 5 2 6 10 13 14 12 12 11 11 11 10 11 12 12 12 9 7 6 4 2 4 4 5 4 4 4 4 4 4 4 5 4 4 4 3 2 4 3
15 21 18 10 10 7 7 11 11 4 3 1 7 11 13 13 12 12 13 12 10 10 10 10 10 9 8 6 4 4 6 6 6 7 6 4 5 5 4 4 4 4 5 4 4 5 5 5 5
Wind_Direction
155 170 159 221 233 196 57 55 106 112 116 80 128 357 19 22 7 54 136 132 138 138 135 148 143 135 131 126 128 127 126 125 123 130 138 140 142 136 135 129 118 98 100 120 127 123 120 121 122
158 159 210 285 290 82 78 117 83 28 105 143 132 138 159 75 62 129 130 141 147 139 149 144 144 141 136 131 131 130 128 128 129 135 138 139 141 142 156 156 140 116 113 119 125 126 125 126 120
163 205 273 300 11 54 78 128 57 92 123 156 109 53 33 55 110 143 131 146 147 148 145 130 146 144 141 139 133 132 131 131 135 140 140 138 147 138 138 145 143 132 118 119 126 129 127 125 126
195 196 216 13 51 59 103 119 86 89 107 170 139 98 96 70 142 136 145 151 144 150 145 138 149 148 148 147 138 135 134 139 140 143 133 126 153 149 117 122 130 123 122 125 121 126 126 125 132
253 242 53 79 80 109 145 121 320 19 118 163 220 97 86 139 144 142 147 155 150 151 135 152 156 154 155 155 147 144 140 139 144 143 132 131 128 113 115 106 120 120 118 116 118 127 129 133 143
255 279 235 38 79 94 141 201 72 157 103 115 149 113 91 130 157 151 155 157 155 149 146 146 157 160 162 165 155 153 154 143 148 150 138 115 96 115 130 131 124 130 129 125 111 136 145 148 143
292 305 31 79 72 97 87 166 249 76 108 92 129 83 109 150 150 154 158 156 158 152 155 158 164 165 169 171 162 162 160 161 172 160 157 152 141 125 123 84 94 104 130 153 155 172 183 179 168
298 285 78 73 43 89 129 146 86 68 67 114 172 131 156 160 159 157 160 155 165 163 160 166 165 162 172 170 174 168 170 161 157 160 146 138 163 165 169 184 158 195 234 261 241 215 207 219 210
253 267 27 74 265 104 153 127 277 355 146 78 26 127 128 152 162 163 161 165 169 174 171 170 174 160 168 178 166 179 182 178 184 185 186 172 245 173 223 99 121 278 261 256 256 246 242 236 231
268 325 25 10 347 97 169 157 160 163 164 124 91 111 135 157 165 171 171 173 174 180 180 168 180 178 170 175 174 187 188 195 192 218 119 306 256 216 256 314 237 229 244 277 256 250 253 241 213
45 10 68 56 357 261 204 162 193 154 230 156 154 143 152 162 171 177 178 180 178 180 181 178 188 199 182 192 186 196 196 191 217 207 167 205 226 247 244 220 253 252 244 271 244 225 228 251 260
250 91 8 52 5 193 195 146 188 203 62 2 145 157 158 169 175 181 183 183 182 181 187 186 189 196 203 205 199 32 354 245 205 191 212 203 208 233 244 250 271 263 277 273 246 266 259 265 260
268 129 223 160 328 201 145 173 224 205 303 136 145 160 168 176 178 182 185 181 188 187 189 199 196 192 209 211 192 209 220 226 238 207 213 218 235 249 254 248 262 282 285 273 267 266 266 246 250
12 286 263 227 268 176 189 168 221 129 141 145 158 167 173 179 178 179 190 188 192 195 195 198 198 196 209 217 202 232 234 229 334 326 311 256 250 251 257 253 258 265 269 267 269 259 254 269 253
140 244 195 191 210 114 180 195 201 137 155 158 168 173 172 177 180 186 192 198 198 199 197 201 206 202 205 214 219 216 222 244 227 220 231 234 256 251 264 285 274 270 268 265 260 255 241 237 273
260 222 321 126 229 133 227 99 150 161 170 168 172 177 177 182 185 188 194 203 198 210 199 205 206 212 201 213 211 228 224 233 237 241 238 244 247 265 267 261 258 273 254 266 260 271 281 254 243
195 1 14 134 207 238 225 341 148 173 185 176 176 178 187 187 196 191 199 205 211 202 208 210 212 217 215 211 227 226 235 231 247 249 226 240 239 290 292 272 265 266 261 265 266 248 248 265 263
346 332 50 11 167 231 244 263 162 187 198 188 182 179 189 194 198 200 206 209 208 216 207 217 219 212 215 216 219 233 236 243 249 260 265 256 244 229 265 269 273 262 258 243 252 257 255 255 257
316 320 338 78 153 259 256 267 232 192 207 203 194 193 186 198 195 200 203 210 215 211 218 215 217 221 211 208 222 225 224 231 222 259 232 243 235 234 241 244 256 251 261 266 268 264 271 272 278
305 308 56 130 244 254 280 275 219 208 207 212 204 205 202 186 187 194 204 208 210 211 218 216 220 214 212 208 214 240 242 225 240 226 218 214 219 239 246 256 264 260 251 262 263 271 276 277 287
284 312 348 349 287 245 282 252 200 207 216 208 220 212 211 207 196 194 201 210 210 215 217 219 220 218 205 212 195 200 212 222 215 218 250 215 211 223 240 254 260 272 268 259 265 254 261 278 311
291 17 277 283 289 342 315 322 162 196 206 216 218 218 216 209 211 216 207 209 214 219 218 215 217 209 197 198 199 212 220 222 208 198 171 262 250 199 235 249 252 259 263 279 267 264 253 243 253
325 331 316 301 280 279 147 264 107 165 217 228 220 225 215 216 207 211 218 214 211 214 218 205 200 201 197 194 210 208 222 221 179 190 186 190 207 162 149 278 281 278 268 262 268 265 237 239 254
323 241 236 245 256 248 65 315 182 73 7 294 136 209 214 203 210 215 215 223 219 208 213 187 188 185 188 196 207 211 204 191 163 198 216 220 233 286 83 13 318 277 281 276 270 267 260 242 244
240 256 261 246 223 57 37 288 5 11 338 265 244 79 183 188 200 202 203 206 208 199 185 179 184 187 190 195 206 211 213 186 192 199 209 188 250 252 302 324 306 302 310 295 285 276 271 261 243
221 257 274 243 312 348 147 261 45 17 66 96 149 138 148 179 179 195 189 191 182 177 181 180 183 188 191 195 202 209 211 228 312 302 192 178 259 336 349 336 323 298 277 268 268 290 273 299 266
201 235 267 298 236 254 303 297 267 101 114 177 175 161 155 139 141 153 162 153 159 167 176 177 182 187 192 189 201 202 196 126 43 119 118 146 153 29 25 17 15 24 23 1 352 26 357 338 317
265 3 216 219 268 271 293 256 254 325 9 137 169 170 135 136 142 145 141 145 149 147 161 167 174 177 188 192 195 191 179 193 160 130 59 7 338 35 36 41 54 61 42 48 32 57 41 331 323
191 231 243 312 308 302 285 280 75 308 17 355 157 148 147 144 142 142 141 140 134 134 143 147 162 163 171 180 192 174 170 178 135 96 73 78 76 68 64 53 48 47 62 61 63 70 28 5 10
249 219 231 225 223 235 299 285 291 321 337 213 160 148 145 143 145 145 137 133 134 137 135 133 136 141 157 172 171 174 157 123 119 115 104 97 103 90 84 70 70 69 55 57 66 56 58 50 38